Weather History for Wiscasset, ME

Change the Weather History Date:

Wednesday, May 9, 2012

  Actual Average Record
Temperature  
Mean Temperature 54 °F -  
Max Temperature 60 °F 59 °F 80 °F (2007)
Min Temperature 50 °F 38 °F 28 °F (1997)
Degree Days  
Heating Degree Days 10    
Growing Degree Days 4 (Base 50)    
Moisture  
Dew Point 51 °F    
Average Humidity 94    
Maximum Humidity 100    
Minimum Humidity 83    
Precipitation  
Precipitation 0.19 in - - ()
Sea Level Pressure  
Sea Level Pressure 29.74 in    
Wind  
Wind Speed 3 mph (South)    
Max Wind Speed 7 mph    
Max Gust Speed -    
Visibility 3 miles    
Events Fog , Rain    
Averages and records for this station are not official NWS values.
T = Trace of Precipitation, MM = Missing Value Source: NWS Daily Summary

Daily Weather History Graph

Daily Weather History Graph

Search for Another Location

Airport:

Trip Planner

Search our weather history database for the weather conditions in past years. The results will help you decide how hot, cold, wet, or windy it might be!

Date:

Astronomy

May. 09, 2012 Rise Set
Actual Time 5:19 AM EDT 7:51 PM EDT
Civil Twilight 4:46 AM EDT 8:24 PM EDT
Nautical Twilight 4:05 AM EDT 9:05 PM EDT
Astronomical Twilight 3:19 AM EDT 9:52 PM EDT
Moon 11:50 PM EDT (5/9) 8:28 AM EDT (5/9)
Length of Visible Light 15h 38m
Length of Day
14h 32m
Waning Gibbous, 83% of the Moon is Illuminated
May 9
Waning Gibbous
May 12
Last Quarter
May 20
New
May 28
First Quarter
Jun 4
Full

Hourly Weather History & Observations

Time (EDT) Temp. Dew Point Humidity Pressure Visibility Wind Dir Wind Speed Gust Speed Precip Events Conditions
12:53 AM 50.0 °F 48.0 °F 93% 29.89 in 4.0 mi South 5.8 mph - 0.06 in Rain Light Rain
1:53 AM 51.1 °F 48.9 °F 92% 29.87 in 10.0 mi SSW 5.8 mph - 0.03 in   Overcast
2:53 AM 51.1 °F 48.9 °F 92% 29.85 in 4.0 mi South 6.9 mph - 0.01 in Rain Light Rain
3:26 AM 51.8 °F 48.2 °F 88% 29.84 in 2.5 mi South 3.5 mph - 0.01 in   Overcast
3:39 AM 51.8 °F 48.2 °F 88% 29.84 in 3.0 mi Variable 4.6 mph - 0.01 in   Overcast
3:53 AM 51.1 °F 48.9 °F 92% 29.84 in 3.0 mi South 3.5 mph - 0.02 in   Overcast
4:53 AM 51.1 °F 50.0 °F 96% 29.82 in 3.0 mi SSW 4.6 mph - N/A   Overcast
5:04 AM 51.8 °F 50.0 °F 94% 29.82 in 2.5 mi Calm Calm - N/A   Overcast
5:17 AM 51.8 °F 50.0 °F 94% 29.82 in 2.0 mi Variable 3.5 mph - N/A   Overcast
5:53 AM 51.1 °F 50.0 °F 96% 29.81 in 1.5 mi Calm Calm - N/A   Overcast
6:02 AM 51.8 °F 50.0 °F 94% 29.81 in 1.2 mi SW 4.6 mph - N/A   Overcast
6:36 AM 51.8 °F 50.0 °F 94% 29.81 in 0.8 mi Variable 4.6 mph - N/A   Overcast
6:53 AM 51.1 °F 50.0 °F 96% 29.81 in 0.8 mi SSW 4.6 mph - 0.01 in   Overcast
7:33 AM 51.8 °F 50.0 °F 94% 29.80 in 1.0 mi South 3.5 mph - N/A   Overcast
8:20 AM 51.8 °F 51.8 °F 100% 29.80 in 0.5 mi Calm Calm - N/A Fog Fog
8:53 AM 52.0 °F 51.1 °F 97% 29.79 in 0.5 mi Calm Calm - 0.00 in Fog Fog
9:53 AM 53.1 °F 52.0 °F 96% 29.78 in 0.5 mi SSW 4.6 mph - N/A Fog Fog
10:53 AM 54.0 °F 52.0 °F 93% 29.77 in 0.5 mi Calm Calm - N/A Fog Fog
11:53 AM 54.0 °F 53.1 °F 97% 29.75 in 0.5 mi Calm Calm - N/A Fog Fog
12:35 PM 55.4 °F 53.6 °F 94% 29.74 in 1.5 mi SE 3.5 mph - N/A   Overcast
12:44 PM 55.4 °F 53.6 °F 94% 29.74 in 3.0 mi SSE 3.5 mph - N/A   Overcast
12:53 PM 55.9 °F 54.0 °F 93% 29.74 in 5.0 mi Calm Calm - N/A   Overcast
1:53 PM 57.0 °F 54.0 °F 89% 29.73 in 10.0 mi SSE 3.5 mph - N/A   Overcast
2:53 PM 57.9 °F 54.0 °F 87% 29.71 in 10.0 mi South 4.6 mph - N/A   Overcast
3:53 PM 59.0 °F 54.0 °F 83% 29.71 in 10.0 mi South 3.5 mph - N/A   Overcast
4:53 PM 57.9 °F 53.1 °F 84% 29.70 in 10.0 mi SSE 3.5 mph - N/A   Overcast
5:53 PM 57.0 °F 53.1 °F 87% 29.68 in 10.0 mi Calm Calm - N/A   Overcast
6:13 PM 55.4 °F 53.6 °F 94% 29.68 in 10.0 mi South 3.5 mph - N/A   Overcast
6:53 PM 54.0 °F 52.0 °F 93% 29.69 in 7.0 mi Calm Calm - 0.01 in   Overcast
7:12 PM 53.6 °F 51.8 °F 94% 29.68 in 1.8 mi Calm Calm - 0.00 in Rain Light Rain
7:53 PM 53.1 °F 51.1 °F 93% 29.67 in 1.2 mi Calm Calm - 0.02 in Rain Light Rain
8:53 PM 52.0 °F 51.1 °F 97% 29.66 in 1.5 mi Calm Calm - 0.01 in Rain Light Rain
9:08 PM 51.8 °F 51.8 °F 100% 29.66 in 1.2 mi Calm Calm - 0.00 in   Overcast
9:21 PM 51.8 °F 51.8 °F 100% 29.67 in 1.8 mi Calm Calm - 0.00 in   Overcast
9:29 PM 51.8 °F 50.0 °F 94% 29.66 in 2.0 mi Calm Calm - 0.00 in   Overcast
9:38 PM 51.8 °F 50.0 °F 94% 29.66 in 1.8 mi SE 3.5 mph - 0.00 in   Overcast
9:53 PM 52.0 °F 50.0 °F 93% 29.65 in 1.2 mi Calm Calm - 0.00 in   Overcast
10:08 PM 51.8 °F 51.8 °F 100% 29.65 in 0.8 mi Calm Calm - N/A   Mist
10:39 PM 51.8 °F 51.8 °F 100% 29.64 in 1.2 mi Calm Calm - 0.01 in Rain Light Rain
10:53 PM 52.0 °F 50.0 °F 93% 29.63 in 1.5 mi Calm Calm - 0.01 in Rain Light Rain
11:04 PM 51.8 °F 50.0 °F 94% 29.63 in 2.5 mi Calm Calm - 0.00 in   Overcast
11:31 PM 51.8 °F 51.8 °F 100% 29.62 in 1.8 mi Calm Calm - 0.00 in   Overcast
11:53 PM 52.0 °F 51.1 °F 97% 29.62 in 1.2 mi Calm Calm - 0.01 in Rain Light Rain